Location: Paris
(48.6709°N, 2.3750°E)
Time: 11:37:58
(UTC+01:00)

ISS - Visible Passes

Search period start: 29 November 2022 00:00
Search period end: 09 December 2022 00:00
Orbit: 411 x 420 km, 51.6° (Epoch: 29 November)

Date Brightness Start Highest point End Pass type
(mag) Time Alt. Az. Time Alt. Az. Time Alt. Az.
29 Nov -3.3 17:49:46 10° WNW 17:53:01 48° N 17:55:47 13° ENE visible
29 Nov -2.2 19:26:39 10° WNW 19:28:40 33° WNW 19:28:40 33° WNW visible
30 Nov -3.7 18:37:56 10° WNW 18:41:14 60° NNE 18:41:58 45° ENE visible
30 Nov -0.2 20:14:44 10° WNW 20:14:52 11° WNW 20:14:52 11° WNW visible
01 Dec -3.5 17:49:09 10° WNW 17:52:25 52° N 17:55:19 12° E visible
01 Dec -2.4 19:25:56 10° WNW 19:28:13 38° W 19:28:13 38° W visible
02 Dec -3.9 18:37:08 10° WNW 18:40:29 86° SSW 18:41:39 37° ESE visible
02 Dec -0.2 20:14:22 10° W 20:14:33 11° W 20:14:33 11° W visible
03 Dec -3.8 17:48:19 10° WNW 17:51:40 72° NNE 17:54:59 10° ESE visible
03 Dec -2.0 19:25:15 10° W 19:28:06 29° SW 19:28:06 29° SW visible
04 Dec -2.7 18:36:17 10° WNW 18:39:29 44° SSW 18:41:48 16° SE visible
05 Dec -3.4 17:47:22 10° WNW 17:50:41 66° SSW 17:53:58 10° SE visible
05 Dec -0.8 19:25:08 10° WSW 19:26:53 14° SW 19:28:38 10° SSW visible
06 Dec -1.2 18:35:37 10° W 18:38:12 21° SW 18:40:46 10° SSE visible
07 Dec -1.8 17:46:26 10° W 17:49:26 32° SW 17:52:25 10° SSE visible
